Location: Bonson
(45.5246°N, 4.2166°E)
Time: 22:34:23
(UTC+00:00)

Daily predictions for brighter satellites

Satellite Brightness Start Highest point End
(mag) Time Altitude Azimuth Time Altitude Azimuth Time Altitude Azimuth
BREEZE-M (TANK) 4.5 17:34:50 10° WNW 17:39:15 76° NNE 17:59:26 10° ESE
Cosmos 1844 Rocket 3.2 17:57:19 10° S 18:02:23 37° ESE 18:07:29 10° NE
Cosmos 372 Rocket 4.0 17:59:02 10° S 18:04:13 66° ESE 18:09:24 10° NNE
Cosmos 1707 2.9 18:01:44 10° N 18:05:28 48° ENE 18:09:10 10° SSE
NOSS 3-2 (C) 4.3 17:59:24 10° NNW 18:06:35 52° NE 18:14:43 10° ESE
CZ-2C R/B 3.5 18:04:41 10° SW 18:06:37 13° SSW 18:08:29 10° SSE
Cosmos 1844 4.3 18:04:45 10° S 18:09:50 35° ESE 18:14:54 10° NE
ISS -2.8 18:07:20 10° W 18:10:36 46° NNW 18:13:53 10° NE
NOSS 3-4 (A) 4.4 18:06:51 10° SSE 18:11:15 22° ESE 18:15:48 10° ENE
NOSS 3-4 (C) 4.4 18:06:59 10° SSE 18:11:22 22° ESE 18:15:53 10° ENE
USA 186 3.8 18:11:21 10° E 18:12:55 13° ENE 18:14:29 10° NE
Meteor 1-12 Rocket 4.4 18:08:01 10° S 18:13:42 55° E 18:19:20 10° NNE
Cosmos 1300 Rocket 3.7 18:14:46 10° S 18:19:04 53° E 18:23:24 10° NNE
Okean 1 Rocket 4.3 18:19:08 10° SE 18:22:28 21° E 18:25:49 10° NE
Sich 1 Rocket 3.7 18:18:52 10° S 18:23:22 87° W 18:27:59 10° N
Cosmos 2298 Rocket 4.0 18:20:13 10° S 18:25:30 69° ESE 18:30:49 10° NNE
CENTAUR R/B 3.3 18:17:49 10° NW 18:25:44 62° NE 18:34:26 10° SE
Cosmos 1833 Rocket 4.3 18:23:04 10° N 18:26:54 18° NE 18:30:12 12° E
CSL-04 Debris 4.1 18:24:28 10° SSE 18:29:50 75° ENE 18:35:14 10° NNW
CSL-04 Rocket 3.7 18:26:22 10° SSE 18:31:47 74° ENE 18:37:19 10° N
ATLAS 2AS CENTAUR R/B 3.5 18:26:33 10° S 18:33:32 36° ESE 18:40:33 10° NE
Okean 2 Rocket 3.0 18:29:07 10° S 18:33:36 78° E 18:38:04 10° NNE
YAOGAN 1 2.9 18:30:07 10° S 18:34:25 71° WSW 18:38:46 10° NNW
Cosmos 1025 Rocket 3.0 18:30:31 10° N 18:34:55 74° E 18:39:19 10° SSE
ATLAS 3B R/B 3.7 18:31:44 10° NNW 18:37:43 31° NNE 18:42:35 15° E
SWAS 4.4 18:36:24 10° NNW 18:40:41 66° ENE 18:44:39 12° SE
Abrixas rocket 1.8 18:37:52 10° WNW 18:40:43 71° NNE 18:42:11 25° E
Cosmos 1513 Rocket 4.5 18:34:51 10° S 18:41:07 88° E 18:47:17 10° N
CREW DRAGON DEMO-1 DEB 3.0 18:39:43 10° WNW 18:42:44 59° NNE 18:44:16 25° E
Cosmos 1536 Rocket 3.5 18:40:15 10° N 18:44:43 70° E 18:49:10 10° SSE
Cosmos 1125 Rocket 3.5 18:40:54 10° S 18:46:09 64° ESE 18:51:25 10° NNE
SJ-6B 3.7 18:48:31 23° ESE 18:49:47 28° ENE 18:53:04 10° N
CZ-4 R/B 3.1 18:48:11 10° SSW 18:52:06 37° W 18:55:59 10° NNW
SJ-11-01 4.4 18:48:21 10° S 18:53:04 79° WSW 18:57:47 10° NNW
Cosmos 2150 Rocket 4.3 18:47:41 10° SSW 18:53:05 78° WNW 18:58:35 10° NNE
CZ-2C R/B 3.6 18:48:48 10° S 18:54:07 67° WSW 18:59:46 10° NNW
Cosmos 1464 Rocket 4.1 18:48:21 10° SSW 18:54:28 78° W 19:00:42 10° N
USA 238 DEB 4.1 18:47:51 10° NW 18:55:04 75° SW 19:02:34 10° SSE
USA 238 4.0 18:47:57 10° NW 18:55:11 76° SW 19:02:41 10° SSE
Cosmos 2285 Rocket 4.0 18:50:37 10° S 18:56:49 64° ESE 19:03:07 10° NNE
Cosmos 1674 2.6 18:53:15 10° N 18:57:05 62° E 19:00:17 14° SSE
Cosmos 2026 Rocket 4.5 18:51:49 10° N 18:57:49 41° ENE 19:02:16 17° SE
Cosmos 1092 Rocket 4.1 18:52:03 10° N 18:58:05 53° ENE 19:04:08 10° SSE
FREGAT/IRIS 4.1 19:04:41 20° NNE 19:04:41 20° NNE 19:05:51 10° N
MOS 1 Rocket 3.0 18:59:13 10° NNE 19:03:37 88° WNW 19:07:53 10° SSW
TSX-5 4.0 19:04:23 10° S 19:08:02 50° ESE 19:12:40 10° NE
ARGOS 3.2 19:04:20 10° SSE 19:09:42 82° WSW 19:15:07 10° NNW
Cosmos 1340 Rocket 4.0 19:15:11 26° NE 19:15:11 26° NE 19:17:27 10° NNE
CZ-2C R/B 2.8 19:08:25 10° NNE 19:13:55 56° E 19:19:24 10° S
Cosmos 1733 3.2 19:13:48 28° SSE 19:15:30 53° E 19:19:15 10° NNE
Cosmos 2151 Rocket 4.4 19:11:57 10° SSW 19:16:18 53° WNW 19:20:45 10° N
MOS 1 4.3 19:13:05 20° SSE 19:17:07 64° ENE 19:22:47 10° N
Lacrosse 5 rocket 3.4 19:15:24 10° NW 19:18:43 20° N 19:20:43 16° NE
Cosmos 2082 Rocket 3.4 19:15:39 10° N 19:20:14 25° NE 19:21:17 23° ENE
Shenzhou-11 Module 4.4 19:20:31 10° SW 19:20:33 10° SW 19:20:33 10° SW
BREEZE-M DEB (TANK) 3.7 19:19:29 10° WNW 19:22:47 52° SSW 19:27:36 23° SE
BREEZE-M R/B 3.9 19:12:19 10° WSW 19:23:05 81° NNW 19:24:25 37° ENE
DMSP B5D2-2 4.1 19:18:31 10° NNE 19:23:45 57° E 19:28:56 10° S
Cosmos 494 Rocket 4.4 19:20:09 10° NNW 19:25:22 63° WSW 19:29:53 14° S
Meteor 1-15 Rocket 4.4 19:21:20 10° SSW 19:26:58 74° WNW 19:32:45 10° N
Cosmos 1805 3.3 19:23:30 10° SSW 19:27:24 77° W 19:31:20 10° N
OBJECT-B 2.3 19:28:48 26° NNE 19:28:48 26° NNE 19:30:34 10° N
Ariane Rocket 2.9 19:28:06 21° SSE 19:31:33 86° WSW 19:36:41 10° NNW
Milstar 3 Cent rocket 4.1 19:28:02 10° SW 19:31:36 15° S 19:32:39 14° S
SL-08 RB Rocket 4.0 19:27:52 15° S 19:31:40 67° W 19:36:11 10° NNW
H-2A R/B 3.4 19:28:32 10° SSW 19:33:10 38° W 19:37:56 10° NNW
USA 234 4.3 19:38:13 24° SSE 19:38:13 24° SSE 19:41:35 10° S
Cosmos 1269 Rocket 4.0 19:32:00 10° NNW 19:37:21 88° WSW 19:39:34 37° SSE
Cosmos 1626 2.1 19:38:39 10° N 19:42:02 72° N 19:42:02 72° N
Okean 1-7 Rocket 4.4 19:38:21 10° N 19:41:50 38° NE 19:41:50 38° NE
MetOp-A 4.1 19:40:20 30° SSE 19:43:05 86° WSW 19:48:29 10° NNW
USA 186 3.1 19:42:34 34° SW 19:43:14 39° W 19:46:22 10° NNW
Cosmos 1844 Rocket 4.2 19:41:08 10° WSW 19:46:15 37° NW 19:51:27 10° NNE
COSMOS 2406 3.1 19:40:53 10° NNW 19:46:35 76° ENE 19:47:56 53° SE
ISS -2.0 19:44:58 10° WNW 19:47:46 27° N 19:47:46 27° N
Cosmos 2278 Rocket 2.6 19:44:38 10° S 19:51:32 44° ENE 19:55:39 10° NE
Lacrosse 4 Rocket 2.7 19:50:16 10° NNW 19:52:52 28° NNE 19:52:52 28° NNE
Meteor 1-22 Rocket 4.3 19:48:54 10° S 19:54:49 85° W 20:00:56 10° N
Meteor 2-5 Rocket 4.2 19:51:14 10° NNW 19:56:49 59° W 20:00:46 20° S
Cosmos 909 Rocket 4.4 19:52:50 10° NNW 19:59:07 46° NE 19:59:55 44° ENE
Meteor 1-24 Rocket 3.9 19:53:36 10° NNW 19:59:11 73° W 20:01:37 36° S
Okean 1 Rocket 4.4 19:55:52 10° SW 20:00:05 40° WNW 20:04:20 10° N
NOSS 3-4 (A) 3.6 19:55:31 10° SW 20:01:24 71° NW 20:07:45 10° NE
NOSS 3-4 (C) 3.6 19:55:37 10° SW 20:01:31 71° NW 20:07:52 10° NE
Resurs 01 Rocket 2.3 20:03:26 46° NNE 20:03:26 46° NNE 20:06:43 10° N
SL-14 R/B 3.8 19:58:24 10° NNW 20:01:55 57° WNW 20:01:55 57° WNW
Meteor 2-19 Rocket 4.3 19:57:18 10° N 20:03:23 65° ENE 20:03:47 64° E
Cosmos 1833 Rocket 2.5 20:06:00 10° NNW 20:11:41 88° ENE 20:11:54 83° SE
Cosmos 2251 Rocket 4.0 20:09:18 10° NNW 20:13:44 51° NNE 20:13:44 51° NNE
CENTAUR R/B 4.1 20:08:49 10° NW 20:16:27 43° WSW 20:22:00 20° S
ARIANE 5 R/B 4.3 20:20:05 26° N 20:20:05 26° N 20:22:05 10° N
SPOT 3 Rocket 3.7 20:20:50 68° WSW 20:20:57 68° WSW 20:26:06 10° NNW
ATLAS 2AS CENTAUR R/B 3.3 20:16:18 10° SW 20:24:12 65° NW 20:32:03 10° NE
ATLAS 3B R/B 2.6 20:22:11 10° NW 20:29:06 80° SW 20:29:50 72° S
Cosmos 1655 Rocket 4.0 20:31:50 10° N 20:37:50 82° NNW 20:37:50 82° NNW
Lacrosse 5 rocket 3.7 20:54:28 10° NW 20:56:20 23° NNW 20:56:20 23° NNW
Cosmos 2098 Rocket 4.5 20:56:01 10° NNW 21:01:45 53° WNW 21:01:45 53° WNW
Cosmos 2082 Rocket 3.2 20:59:13 10° NNW 21:03:08 44° NW 21:03:08 44° NW
Terra 4.3 21:21:44 16° N 21:21:44 16° N 21:22:43 10° N
Cosmos 2278 Rocket 4.0 21:33:01 24° WNW 21:34:33 27° NW 21:39:21 10° N
